Location: Arbon
(43.0005°N, 0.7472°E)
Time: 10:59:11
(UTC+00:00)

Cosmos 1934 Rocket - Pass Details

Date: 22 April 2026
Orbit: 936 x 999 km, 83.0° (Epoch: 15 May)

Event Time Altitude Azimuth Distance (km) Brightness Sun altitude
Exits shadow 20:54:46 14° 190° (S) 2,423 5.8 -20.9°
Maximum altitude 21:00:12 82° 278° (W) 987 4.0 -21.6°
Drops below altitude 10° 21:06:26 10° 6° (N) 2,706 6.8 -22.4°
Sets 21:08:55 0° 8° (N) 3,647 7.5 -22.8°
